Starlink 30809

operational
NORAD ID: 58183 Int'l Des: 2023-167 Owner: SPXS Country: US Constellation: starlink
LEOCIRCULAR

Starlink 30809について

説明を読み込み中...

リアルタイム位置

3D地球を読み込み中...

次回通過

高度履歴

Altitude vs Time

uPlot chart will show altitude changes over time

軌道要素

1 58183U 23167J 26034.20284578 -.00004965 00000-0 -35256-3 0 9995
2 58183 43.0047 333.6625 0001215 263.7445 96.3259 15.02554048125762
Epoch: Feb 3, 2026 • Age: 19 hours

現在のステータス

高度 561.3 km
速度 7.58 km/s
衛星直下点 -13.56°S, 178.6°W
打ち上げ日 Oct 30, 2023
運用期間 2.2 years
タイプ internet

技術仕様

分類 Payload
質量 730.00 kg
乾燥質量 700.00 kg
総質量 730.00 kg
長さ 0.30 m
直径 4.10 m
スパン 29.00 m
形状 Box + pan
製造者 SPXS
バスタイプ Starlink V2M
フェーズステータス In Orbit
所有者/国 SPXS/US

大規模コンステレーション

Loading constellations...